[[{"header":{"parameterUnit":"m.s-1","parameterCategory":1,"la1":30.2991,"la2":30.254,"lo1":-89.0895,"lo2":-89.0444,"dy":0.0017,"dx":0.0017,"nx":28,"ny":28,"refTime":"2025-03-28T03:00:00:Z","depth":0,"parameterNumber":2,"parameterNumberName":"U-component_of_WINDS"},"data":[0,0,0,0,0,0,0,0,0,0,0,0,0,0,0,0,0,0,0,0,0,0,0,0,0,0,0,0,0,0,0,0,0,0,0,0,0,0,0,0,0,0,0,0,0,0,0,0,0,0,0,0,0,0,0,0,0,0,-5.4097,-5.4098,0,-5.4194,-5.4195,-5.4196,-5.4125,-5.4122,-5.4119,-5.4116,-5.4216,-5.4221,-5.4227,0,0,0,0,0,0,0,0,0,0,0,0,0,-5.3851,-5.3856,-5.4097,-5.4098,-5.41,-5.4194,-5.4195,-5.4197,-5.4126,-5.4122,-5.4118,-5.4115,-5.4214,-5.422,-5.4227,0,0,0,0,0,0,0,0,0,0,0,0,0,-5.3954,-5.3857,-5.4097,-5.4076,-5.4075,-5.4194,-5.4195,-5.4197,-5.4127,-5.4122,-5.4117,-5.4113,-5.4212,-5.422,-5.4228,-5.4373,0,0,-5.4254,-5.4257,0,0,0,0,0,0,0,0,-5.3948,-5.3963,-5.4078,-5.4077,-5.4076,-5.4143,-5.4145,-5.4256,-5.4128,-5.4107,-5.4116,-5.4111,-5.4195,-5.4205,-5.4233,-5.4378,-5.4382,-5.4254,-5.4259,-5.4263,-5.4265,0,0,0,0,0,0,0,-5.3941,-5.3958,-5.4135,-5.4079,-5.4079,-5.4061,-5.4071,-5.4166,-5.4176,-5.4108,-5.4103,-5.4116,-5.4194,-5.4225,-5.4235,-5.4384,-5.4254,-5.4261,-5.4267,-5.427,-5.4652,-5.4657,0,0,0,0,0,0,-5.3936,-5.3953,-5.4132,-5.4138,-5.3999,-5.407,-5.408,-5.4126,-5.4175,-5.4178,-5.412,-5.4112,-5.4213,-5.4225,-5.4238,-5.441,-5.4263,-5.4271,-5.4275,-5.4647,-5.4653,-5.4659,0,0,0,0,0,0,-5.3931,-5.3952,-5.4128,-5.4044,-5.4065,-5.4079,-5.4131,-5.4131,-5.4162,-5.4184,-5.4185,-5.415,-5.421,-5.4226,-5.434,-5.4413,-5.4274,-5.4282,-5.4641,-5.4649,-5.4656,-5.4756,0,0,0,0,0,0,-5.3924,-5.3951,-5.4006,-5.4046,-5.407,-5.4229,-5.4136,-5.4136,-5.4176,-5.4167,-5.4212,-5.4215,-5.4208,-5.4328,-5.4348,-5.4422,-5.4289,-5.4635,-5.4645,-5.4654,-5.4746,-5.4766,-5.4783,0,0,0,0,0,-5.3915,-5.4031,-5.4009,-5.4031,-5.4139,-5.4233,-5.4247,-5.4236,-5.4183,-5.4238,-5.4252,-5.4214,-5.4402,-5.434,-5.4363,-5.4439,-5.463,-5.4642,-5.4653,-5.4738,-5.4762,-5.4783,0,0,0,0,0,0,-5.3998,-5.4035,-5.4012,-5.4144,-5.4186,-5.4221,-5.429,-5.4262,-5.432,-5.4309,-5.4294,-5.4305,-5.4424,-5.4443,-5.4374,-5.4583,-5.4508,-5.4524,-5.4564,-5.4588,-5.4606,-5.4597,-5.4295,0,0,0,0,0,-5.4032,-5.4105,-5.4134,-5.4247,-5.4269,-5.4277,-5.4317,-5.4305,-5.4348,-5.4366,-5.4388,-5.4431,-5.45,-5.4546,-5.461,-5.475,-5.4758,-5.4814,-5.4833,-5.4848,-5.4861,-5.4935,-5.496,-5.4697,-5.4697,-5.4697,0,0,-5.4102,-5.4131,-5.4178,-5.4264,-5.4295,-5.4371,-5.4292,-5.4375,-5.4431,-5.4378,-5.4486,-5.4505,-5.4552,-5.4679,-5.4736,-5.4699,-5.4936,-5.4863,-5.4874,-5.488,-5.495,-5.4975,-5.4997,-5.4705,-5.4704,-5.4702,0,0,-5.4267,-5.4298,-5.4395,-5.4428,-5.4477,-5.4481,-5.4505,-5.4545,-5.4555,-5.4663,-5.4625,-5.4692,-5.4811,-5.4846,-5.4879,-5.506,-5.5026,-5.5082,-5.5177,-5.525,-5.5271,-5.5289,-5.5351,-5.5374,-5.5096,-5.5097,-5.5097,0,-5.4347,-5.446,-5.4448,-5.4534,-5.4573,-5.453,-5.4628,-5.4661,-5.4728,-5.4756,-5.4714,-5.4863,-5.4892,-5.5025,-5.507,-5.5099,-5.5125,-5.5075,-5.5269,-5.5287,-5.5304,-5.5363,-5.5387,-5.5103,-5.5102,-5.5101,-5.5101,0,-5.4555,-5.4634,-5.4707,-5.4773,-5.482,-5.4912,-5.4914,-5.4964,-5.4949,-5.4958,-5.5069,-5.5103,-5.5173,-5.5205,-5.5191,-5.5337,-5.5312,-5.5271,-5.5194,-5.5335,-5.539,-5.5413,-5.5112,-5.5109,-5.5108,-5.5106,0,0,-5.4772,-5.4832,-5.4858,-5.4887,-5.4939,-5.4999,-5.509,-5.5159,-5.5201,-5.525,-5.5324,-5.5427,-5.5388,-5.5427,-5.5417,-5.5481,-5.562,-5.5431,-5.5432,-5.5463,-5.5781,-5.581,-5.5836,-5.56,-5.5604,-5.5608,-5.5776,0,-5.4937,-5.5094,-5.5087,-5.5233,-5.5305,-5.5267,-5.5345,-5.5385,-5.5397,-5.546,-5.5473,-5.5545,-5.549,-5.5512,-5.5575,-5.559,-5.5683,-5.5578,-5.5667,-5.567,-5.5653,-5.5865,-5.5896,-5.6053,-5.5798,-5.5802,-5.5804,0,-5.515,-5.5206,-5.536,-5.5401,-5.5431,-5.5501,-5.5564,-5.5625,-5.567,-5.5674,-5.5718,-5.5698,-5.579,-5.5714,-5.5839,-5.5768,-5.5805,-5.5818,-5.5824,-5.5829,-5.5743,-5.5873,-5.6103,-5.6126,-5.5839,-5.5836,-5.5833,0,-5.5289,-5.5404,-5.551,-5.5537,-5.5588,-5.5638,-5.5662,-5.5702,-5.5744,-5.58,-5.5827,-5.5893,-5.5928,-5.5979,-5.5978,-5.5924,-5.6105,-5.6029,-5.6109,-5.6109,-5.6145,-5.6142,-5.6381,-5.6175,-5.6175,-5.6174,-5.6174,0,-5.5473,-5.5567,-5.5573,-5.5638,-5.5743,-5.5735,-5.5839,-5.5858,-5.5895,-5.5963,-5.5935,-5.5999,-5.5995,-5.6061,-5.6061,-5.6164,-5.6181,-5.6186,-5.6184,-5.6186,-5.6185,-5.6207,-5.6195,-5.6181,-5.6179,-5.6178,-5.6177,0,-5.5644,-5.5652,-5.5764,-5.5804,-5.5817,-5.5892,-5.5926,-5.5988,-5.5998,-5.6084,-5.6104,-5.612,-5.6196,-5.6201,-5.6288,-5.6288,-5.6412,-5.64,-5.6396,-5.6393,-5.6471,-5.6463,-5.673,-5.6763,-5.6539,-5.6541,-5.6543,0,-5.5758,-5.583,-5.5878,-5.5922,-5.5948,-5.6019,-5.6062,-5.6058,-5.6104,-5.6162,-5.6216,-5.6289,-5.6347,-5.647,-5.6489,-5.6556,-5.6543,-5.6632,-5.6553,-5.6553,-5.6541,-5.6535,-5.6541,-5.6646,-5.6649,-5.6651,-5.6653,0,-5.596,-5.5961,-5.6023,-5.6088,-5.614,-5.6191,-5.6239,-5.6276,-5.6278,-5.6331,-5.6408,-5.6453,-5.6542,-5.6615,-5.668,-5.6705,-5.6679,-5.6678,-5.67,-5.6701,-5.6694,-5.6696,-5.6435,-5.6671,-5.6669,-5.6668,-5.6667,-5.6666,-5.6104,-5.6166,-5.6209,-5.628,-5.6316,-5.6361,-5.6421,-5.6439,-5.6503,-5.6575,-5.657,-5.6655,-5.6699,-5.6784,-5.6814,-5.6881,-5.685,-5.6882,-5.6889,-5.6896,-5.6903,-5.6687,-5.6893,-5.6893,-5.6892,-5.6892,-5.6891,0,-5.6302,-5.6328,-5.6394,-5.6461,-5.6517,-5.649,-5.6542,-5.659,-5.6665,-5.6709,-5.6766,-5.6855,-5.6925,-5.6951,-5.702,-5.7068,-5.7058,-5.7086,-5.708,-5.7086,-5.6928,-5.6901,-5.7093,-5.7093,-5.7093,-5.7093,-5.7093,-5.7093,-5.6411,-5.6513,-5.652,-5.664,-5.6666,-5.6748,-5.678,-5.6821,-5.6856,-5.6956,-5.7014,-5.7031,-5.7068,-5.7139,-5.7203,-5.7209,-5.7234,-5.7267,-5.7267,-5.7118,-5.7097,-5.7078,-5.7052,-5.7273,-5.7273,-5.7419,-5.7421,-5.7422]},{"header":{"parameterUnit":"m.s-1","parameterCategory":1,"la1":30.2991,"la2":30.254,"lo1":-89.0895,"lo2":-89.0444,"dy":0.0017,"dx":0.0017,"nx":28,"ny":28,"refTime":"2025-03-28T03:00:00:Z","depth":0,"parameterNumber":3,"parameterNumberName":"V-component_of_WINDS"},"data":[0,0,0,0,0,0,0,0,0,0,0,0,0,0,0,0,0,0,0,0,0,0,0,0,0,0,0,0,0,0,0,0,0,0,0,0,0,0,0,0,0,0,0,0,0,0,0,0,0,0,0,0,0,0,0,0,0,0,1.8666,1.8667,0,1.8771,1.8773,1.8774,1.8798,1.8798,1.8797,1.8796,1.8904,1.8907,1.8911,0,0,0,0,0,0,0,0,0,0,0,0,0,1.8487,1.849,1.8666,1.8667,1.8669,1.8771,1.8773,1.8774,1.8799,1.8798,1.8797,1.8796,1.8903,1.8907,1.8911,0,0,0,0,0,0,0,0,0,0,0,0,0,1.8576,1.8491,1.8666,1.8693,1.8697,1.8771,1.8773,1.8774,1.8799,1.8798,1.8797,1.8796,1.8901,1.8907,1.8912,1.8966,0,0,1.8928,1.893,0,0,0,0,0,0,0,0,1.8571,1.8582,1.8688,1.8691,1.8695,1.8771,1.8749,1.8839,1.8799,1.876,1.8796,1.8795,1.8861,1.8869,1.8891,1.8971,1.8976,1.8929,1.8932,1.8934,1.8936,0,0,0,0,0,0,0,1.8565,1.8578,1.8708,1.8689,1.8694,1.8701,1.8712,1.8766,1.8815,1.8763,1.8765,1.8777,1.8862,1.8886,1.8894,1.8977,1.8928,1.8933,1.8936,1.8938,1.9109,1.9111,0,0,0,0,0,0,1.8554,1.8573,1.8704,1.8711,1.8629,1.8705,1.8717,1.8748,1.8814,1.8824,1.8778,1.8778,1.8878,1.8888,1.8898,1.8967,1.8934,1.8939,1.8942,1.9108,1.911,1.9111,0,0,0,0,0,0,1.855,1.8565,1.87,1.8642,1.866,1.8709,1.8743,1.875,1.8774,1.8826,1.8835,1.8793,1.8877,1.889,1.8949,1.8971,1.8941,1.8946,1.9106,1.9108,1.911,1.9105,0,0,0,0,0,0,1.8544,1.8563,1.8584,1.8643,1.8663,1.8749,1.8744,1.8753,1.8783,1.8784,1.8842,1.8851,1.8877,1.8941,1.8955,1.8978,1.895,1.9105,1.9107,1.911,1.9103,1.9106,1.9109,0,0,0,0,0,1.8538,1.8578,1.8585,1.8601,1.869,1.8751,1.8762,1.8792,1.8785,1.8806,1.884,1.8849,1.8967,1.8947,1.8962,1.8987,1.9103,1.9107,1.9109,1.9102,1.9105,1.9109,0,0,0,0,0,0,1.852,1.8586,1.8595,1.8655,1.8697,1.8755,1.8782,1.8795,1.8839,1.8838,1.8873,1.8886,1.8943,1.8971,1.8949,1.9044,1.9035,1.9041,1.9024,1.9028,1.9031,1.9022,1.8955,0,0,0,0,0,1.8523,1.8567,1.8622,1.867,1.8691,1.8733,1.876,1.878,1.8825,1.8843,1.8881,1.8924,1.8971,1.9001,1.9047,1.9108,1.9121,1.9132,1.9135,1.9137,1.9142,1.9178,1.9184,1.9121,1.9121,1.9121,0,0,1.853,1.8571,1.8596,1.8667,1.8702,1.8747,1.8748,1.8795,1.8829,1.885,1.8908,1.8938,1.8989,1.9049,1.9078,1.9074,1.9163,1.9141,1.9142,1.9146,1.9181,1.9187,1.9192,1.9123,1.9123,1.9122,0,0,1.8565,1.86,1.8644,1.868,1.8733,1.8762,1.8772,1.8829,1.8849,1.8909,1.8926,1.8967,1.9047,1.9083,1.9112,1.9163,1.9173,1.9177,1.9192,1.9226,1.9231,1.9235,1.9254,1.9261,1.9182,1.9182,1.9182,0,1.8566,1.8634,1.8666,1.8713,1.8744,1.8766,1.8812,1.8844,1.891,1.8931,1.8927,1.9028,1.9064,1.9134,1.9147,1.9169,1.9183,1.917,1.9228,1.9232,1.9237,1.9256,1.9263,1.9182,1.9182,1.9182,1.9182,0,1.8634,1.8681,1.871,1.8774,1.8808,1.8854,1.8893,1.8925,1.8942,1.8971,1.9031,1.9076,1.9131,1.915,1.9166,1.9223,1.9219,1.9221,1.9212,1.9243,1.9261,1.9268,1.9182,1.9182,1.9182,1.9182,0,0,1.8659,1.8741,1.8751,1.8781,1.8842,1.8879,1.8927,1.8982,1.9009,1.9054,1.9095,1.9163,1.9166,1.9198,1.9219,1.925,1.9289,1.9248,1.925,1.9254,1.9354,1.9353,1.936,1.9296,1.9298,1.9299,1.935,0,1.8702,1.8787,1.8818,1.8889,1.8933,1.8956,1.8998,1.9041,1.9069,1.9112,1.9144,1.9192,1.9191,1.9211,1.9242,1.9277,1.9309,1.9274,1.9335,1.9337,1.9322,1.937,1.9368,1.9414,1.9357,1.9359,1.936,0,1.8762,1.8809,1.8884,1.8942,1.8962,1.8999,1.9053,1.9093,1.9142,1.9162,1.9199,1.9219,1.927,1.9259,1.9331,1.9306,1.9334,1.9355,1.9357,1.9364,1.935,1.9378,1.9429,1.9436,1.9371,1.937,1.9369,0,1.8774,1.8855,1.8912,1.8936,1.9005,1.903,1.906,1.9109,1.914,1.9188,1.9209,1.9262,1.929,1.9331,1.9365,1.9353,1.9434,1.9425,1.9452,1.9451,1.9467,1.9466,1.9524,1.9485,1.9485,1.9485,1.9484,0,1.8818,1.8864,1.8918,1.8952,1.9004,1.904,1.909,1.9121,1.9165,1.9206,1.9229,1.9268,1.931,1.9354,1.9381,1.9437,1.945,1.9467,1.9474,1.9465,1.9463,1.9483,1.9481,1.9486,1.9486,1.9486,1.9485,0,1.8839,1.8877,1.894,1.9,1.9017,1.9052,1.9104,1.9139,1.917,1.9222,1.9236,1.9284,1.9338,1.9376,1.9444,1.9462,1.9523,1.9529,1.9506,1.951,1.9534,1.9531,1.9607,1.9619,1.9572,1.9572,1.9573,0,1.8865,1.8901,1.8965,1.8995,1.9025,1.9072,1.9105,1.9142,1.9175,1.9236,1.9263,1.9319,1.9365,1.9449,1.949,1.9543,1.9551,1.9574,1.9559,1.955,1.9552,1.9549,1.9554,1.9576,1.9576,1.9577,1.9577,0,1.8907,1.8925,1.8971,1.9025,1.9064,1.9108,1.9152,1.9175,1.922,1.9257,1.9312,1.9348,1.9419,1.9474,1.9531,1.9562,1.9578,1.9582,1.9591,1.9582,1.9567,1.9576,1.9513,1.9579,1.9579,1.9579,1.9579,1.9579,1.8931,1.8965,1.9016,1.9068,1.9105,1.9147,1.9183,1.9219,1.9265,1.9326,1.9345,1.9403,1.9453,1.9532,1.9564,1.961,1.9609,1.9621,1.9625,1.9627,1.9627,1.956,1.962,1.962,1.962,1.962,1.962,0,1.8975,1.901,1.9057,1.9119,1.916,1.9171,1.9222,1.9255,1.9305,1.9351,1.9397,1.9461,1.9515,1.9561,1.9617,1.9645,1.9653,1.9658,1.9656,1.9664,1.9625,1.9612,1.965,1.965,1.965,1.965,1.965,1.965,1.9002,1.906,1.9084,1.916,1.9195,1.9252,1.9279,1.9318,1.9355,1.9426,1.9471,1.9501,1.9547,1.9607,1.9657,1.967,1.9689,1.9693,1.9706,1.967,1.9666,1.9663,1.965,1.9697,1.9697,1.9741,1.9742,1.9742]}]]